星链-30456 (STARLINK-30456 )

导读

STARLINK-30456是美国太空探索技术公司SpaceX星链星座的成员,由美国于2023年9月25日发射入轨,服务全球卫星互联网,为偏远地区用户提供高速低延迟网络接入,补充全球网络覆盖,星链计划为全球用户构建近地轨道卫星通信网,该卫星是星链组网扩容的重要组成部分。

基本信息
目录编号:
57943
目录名称:
STARLINK-30456
国际标识:
2023-148J
轨道中心:
EARTH
卫星名称:
星链-30456
卫星全名:
星链-30456 (STARLINK-30456 )
卫星状态:
在轨 (已飞行997 天)
发射日期:
2023-09-25 UTC
国别 :
美国 (US)
星等 :
--
轨道信息
数据来源 国际轨道数据
星历时间: 2026-06-17T20:24:18+0800
23小时前
查看轨道信息
半长轴: 6853.339km
偏心率: 0.0001191
轨道倾角: 53.162°
近地点辐角 84.156°
升交点赤经 280.787°
平近点角 275.958°
近地点: 474.385km
远地点: 476.019km
周期: 94.105分钟
每日圈数: 15.302047
详细信息
固有亮度:
5
最大亮度:
0.3
卫星平台:
Starlink v2.0 mini
覆盖范围:
全球
运营商:
太空探索技术公司
运营商所在国:
美国
制造商(研发单位):
太空探索技术公司
制造商所在国:
美国
使用方式:
暂无
卫星简介
星链(Starlink)计划是由太空探索技术公司(SpaceX)提出的一个巨型低轨卫星互联网星座项目,计划在2019年至2024年间在太空搭建由约1.2万颗卫星组成的“星链”网络,其中1584颗将部署在地球上空550千米处的近地轨道,并从2020年开始工作。该卫星仍在工作。
2D轨道图
3D轨道图
轨道高度分析图
轨道倾角分析图
轨道综合分析图
查看轨道综合分析图